Simultaneous Nadir Overpasses (SNOs) Predictions

Prediction of SNOs between LANDSAT-8 and METOP-A Satellite Orbit:

Table of predicted SNOs for the next 14.0 days since TLE Epoch: 5/21/2016
Index Date (LANDSAT-8) Time (LANDSAT-8) Lat,Lon (LANDSAT-8) SZA (LANDSAT-8 ) Date (METOP-A) Time (METOP-A) Lat,Lon (METOP-A) SZA (METOP-A ) Distance(km) Time Diff (sec)
1 05/22/2016 23:04:13 -81.16, 54.57 117.15 05/22/2016 23:04:04 -81.17, 54.74 117.13 2.99 9
2 05/22/2016 23:53:38 81.19,-137.33 62.92 05/22/2016 23:54:43 81.19,-137.15 62.97 3.01 65
3 05/25/2016 18:38:28 -81.17, 121.14 117.64 05/25/2016 18:38:26 -81.17, 120.98 117.66 2.86 2
4 05/25/2016 19:27:53 81.20, -70.78 62.42 05/25/2016 19:29:05 81.19, -70.92 62.44 2.60 72
5 05/28/2016 13:23:18 81.15, 19.65 61.86 05/28/2016 13:22:09 81.15, 19.62 61.82 0.49 69
6
